{"data":{"norad_id":61853,"epoch":"2026-09-21T05:07:31.543392Z","epoch_age_seconds":126780,"freshness":"FRESH","line1":"1 61853U 24202J   26264.21355953 -.00004338  00000+0 -14827-3 0  9990","line2":"2 61853  43.0011 213.5008 0001381 263.9780  96.0914 15.27566326105234","mean_motion":15.27566326,"eccentricity":0.0001381,"inclination_deg":43.0011,"raan_deg":213.5008,"arg_perigee_deg":263.978,"mean_anomaly_deg":96.0914,"bstar":-0.00014827,"rev_number":10523,"period_min":94.267592541838,"perigee_km":482.14250576589,"apogee_km":484.03757667467,"semimajor_km":6861.2270412203,"source":"CELESTRAK","updated_at":"2026-09-22T09:00:49.441304Z"}}